This demonstration page uses our WeatherBlox Daily Observations layout. Learn more.

Left ArrowRight Arrow

38.89511, -77.03637

Hourly Observations for January 22, 2016

Temp ( °F °C ) Dew Point ( °F °C ) Humidity (%) Winds ( mph kmh ) Pressure ( in mb ) Visibility ( mi km ) Precip ( " mm )
12:52 am 00:52 Clear 26 -3.3 13 -10.6 57 57 NNW 12 19 30.32 1027 10 16 0.00 0.00
1:52 am 01:52 Mostly Clear 25 -3.9 13 -10.6 60 60 NNW 10 17 30.32 1027 10 16 0.00 0.00
2:52 am 02:52 Mostly Clear 23 -5 13 -10.6 65 65 NNW 7 11 30.32 1027 10 16 0.00 0.00
3:52 am 03:52 Clear 23 -5 13 -10.6 65 65 NNW 5 7 30.31 1026 10 16 0.00 0.00
4:52 am 04:52 Clear 22 -5.6 13 -10.6 68 68 NNW 6 9 30.32 1027 10 16 0.00 0.00
5:52 am 05:52 Partly Cloudy 24 -4.4 13 -10.6 62 62 NNW 10 17 30.33 1027 10 16 0.00 0.00
6:12 am 06:12 Cloudy 25 -4 12 -11 59 59 NNW 10 17 30.33 1027 10 16 0.00 0.00
6:52 am 06:52 Cloudy 25 -3.9 14 -10 63 63 N 5 7 30.32 1027 10 16 0.00 0.00
7:52 am 07:52 Cloudy 26 -3.3 15 -9.4 63 63 N 6 9 30.33 1027 10 16 0.00 0.00
8:52 am 08:52 Cloudy 26 -3.3 16 -8.9 66 66 ENE 8 13 30.31 1027 10 16 0.00 0.00
9:52 am 09:52 Cloudy 28 -2.2 16 -8.9 60 60 ENE 9 15 30.31 1026 10 16 0.00 0.00
10:52 am 10:52 Cloudy 29 -1.7 15 -9.4 56 56 NNE 14 22 30.27 1025 10 16 0.00 0.00
11:52 am 11:52 Cloudy 29 -1.7 15 -9.4 56 56 ENE 12 19 30.24 1024 10 16 0.00 0.00
12:52 pm 12:52 Cloudy 29 -1.7 13 -10.6 51 51 ENE 10 17 30.22 1023 10 16 0.00 0.00
12:59 pm 12:59 Cloudy with Light Snow 28 -2.2 13 -10.6 53 53 NE 10 17 30.21 1023 10 16 0.00 0.03
1:06 pm 13:06 Cloudy with Light Snow 28 -2 14 -10 55 55 NE 10 17 30.21 1023 6 10 0.00 0.00
1:11 pm 13:11 Cloudy with Light Snow 27 -2.8 15 -9.4 61 61 NE 12 19 30.21 1023 3 5 0.00 0.03
1:19 pm 13:19 Cloudy with Light Snow 27 -2.8 15 -9.4 61 61 ENE 9 15 30.21 1023 6 10 0.00 0.03
1:39 pm 13:39 Cloudy with Light Snow 26 -3.3 17 -8.3 69 69 ENE 12 19 30.21 1023 3 4 0.00 0.03
1:52 pm 13:52 Cloudy with Light Snow 26 -3.3 18 -7.8 71 71 NE 12 19 30.19 1022 3 4 0.00 0.03
1:58 pm 13:58 Cloudy with Light Snow 25 -4 18 -8 74 74 NE 13 20 30.18 1022 2 2 0.00 0.00
2:15 pm 14:15 Mostly Cloudy with Light Snow 24 -4.4 19 -7.2 81 81 NNE 13 20 30.18 1022 1 1 0.01 0.25
2:24 pm 14:24 Mostly Cloudy with Snow 25 -4 19 -7 80 80 NNE 13 20 30.18 1022 1 1 0.00 0.00
2:28 pm 14:28 Mostly Cloudy with Snow 25 -4 19 -7 80 80 NNE 14 22 30.18 1022 1 1 0.00 0.00
2:52 pm 14:52 Cloudy with Snow 24 -4.4 21 -6.1 88 88 ENE 10 17 30.16 1021 1 1 0.04 1.02
3:52 pm 15:52 Cloudy with Snow 24 -4.4 21 -6.1 88 88 NNE 8 13 30.16 1021 1 1 0.06 1.52
4:16 pm 16:16 Mostly Cloudy with Snow 23 -5 19 -7 86 86 ENE 12 19 30.15 1021 1 1 0.00 0.00
4:52 pm 16:52 Mostly Cloudy with Snow 23 -5 20 -6.7 88 88 NE 13 20 30.13 1020 1 1 0.06 1.52
5:29 pm 17:29 Mostly Cloudy with Light Snow 23 -5 20 -6.7 88 88 ENE 14 22 30.12 1020 1 1 0.02 0.51
5:36 pm 17:36 Mostly Cloudy with Snow 23 -5 19 -7 86 86 NE 14 22 30.12 1020 1 1 0.00 0.00
5:52 pm 17:52 Mostly Cloudy with Light Snow 23 -5 20 -6.7 88 88 NE 14 22 30.10 1019 1 1 0.06 1.52
5:56 pm 17:56 Mostly Cloudy with Light Snow 23 -5 19 -7 86 86 NE 14 22 30.09 1019 1 2 0.00 0.00
6:19 pm 18:19 Mostly Cloudy with Light Snow 23 -5 20 -6.7 88 88 NNE 14 22 30.09 1019 1 1 0.01 0.25
6:52 pm 18:52 Mostly Cloudy with Light Snow 23 -5 20 -6.7 88 88 NE 16 26 30.07 1018 1 1 0.04 1.02
7:13 pm 19:13 Mostly Cloudy with Light Snow 23 -5 20 -6.7 88 88 NNE 17 28 30.06 1018 1 2 0.02 0.51
7:19 pm 19:19 Cloudy with Light Snow 23 -5 19 -7.2 85 85 NE 17 28 30.06 1018 1 2 0.02 0.51
7:31 pm 19:31 Mostly Cloudy with Light Snow 23 -5 20 -6.7 88 88 NNE 16 26 30.03 1017 1 2 0.02 0.51
7:52 pm 19:52 Mostly Cloudy with Light Snow 23 -5 20 -6.7 88 88 NE 16 26 30.04 1017 1 2 0.03 0.76
8:14 pm 20:14 Cloudy with Light Snow 23 -5 19 -7 86 86 NNE 17 28 30.00 1016 1 1 0.00 0.00
8:47 pm 20:47 Cloudy with Light Snow 23 -5 19 -7 86 86 undefined N/A 29.97 1015 1 1 0.04 1.02
8:52 pm 20:52 Cloudy with Light Snow 23 -5 20 -6.7 88 88 NE 17 28 29.97 1015 1 1 0.05 1.27
9:13 pm 21:13 Windy with Snow Likely 23 -5 19 -7.2 85 85 NNE 23 37 29.94 1014 1 2 0.02 0.51
9:20 pm 21:20 Mostly Cloudy with Light Snow 23 -5 19 -7 86 86 NE 21 33 29.94 1014 1 1 0.00 0.00
9:26 pm 21:26 Mostly Cloudy with Snow 23 -5 19 -7 86 86 NE 18 30 29.94 1014 1 1 0.00 0.00
9:52 pm 21:52 Mostly Cloudy with Snow 23 -5 20 -6.7 88 88 NNE 22 35 29.92 1013 1 1 0.05 1.27
10:52 pm 22:52 Mostly Cloudy with Snow 23 -5 20 -6.7 88 88 NE 21 33 29.86 1011 1 1 0.05 1.27
11:06 pm 23:06 Mostly Cloudy with Light Snow 23 -5 19 -7 86 86 NE 22 35 29.85 1011 1 1 0.00 0.00
11:18 pm 23:18 Mostly Cloudy with Heavy Snow 25 -4 19 -7 80 80 NNE 18 30 29.83 1010 0 0 0.00 0.00
11:52 pm 23:52 Mostly Cloudy with Snow 24 -4.4 21 -6.1 88 88 NNE 17 28 29.82 1010 1 1 0.06 1.52

Powered by AerisWeather